Regional Weather Roundup
Issued by NWS

Home | Current Version | Previous Version | Text Only | Print | Product List | Glossary Off
Versions: 1 2 3 4 5 6 7 8 9 10 11 12 13 14 15 16 17 18 19 20 21 22 23 24 25 26 27 28 29 30 31 32 33 34 35 36 37 38 39 40 41 42 43 44 45 46 47 48 49 50

000
ASUS43 KLSX 301607
RWRMO

WEATHER SUMMARY FOR MISSOURI
NATIONAL WEATHER SERVICE SPRINGFIELD MO
1100 AM CDT FRI SEP 30 2016

NOTE: "FAIR" INDICATES FEW OR NO CLOUDS BELOW 12,000 FEET WITH NO
       SIGNIFICANT WEATHER AND/OR OBSTRUCTIONS TO VISIBILITY.
       CURRENT SKY AND/OR WEATHER CONDITIONS ARE NOT AVAILABLE FOR
       CHILLICOTHE AND FARMINGTON.

MOZ001>031-035>038-043-044-053-054-301700-
...NORTHERN AND WESTERN MISSOURI...

CITY           SKY/WX    TMP DP  RH WIND       PRES   REMARKS
KANSAS CTY INT MOSUNNY   66  54  65 N5        30.25S
KANSAS C DTWN  SUNNY     67  54  63 VRB5      30.24S
LEE`S SUMMIT   SUNNY     67  55  65 N7        30.24F
ST JOSEPH      SUNNY     66  52  60 VRB3      30.26F
CHILLICOTHE      N/A     66  52  60 NW6       30.23F
KIRKSVILLE     CLOUDY    63  55  75 N9        30.21S

$$
MOZ066>068-077>081-088>096-101>105-301700-
...SOUTHWEST MISSOURI...

CITY           SKY/WX    TMP DP  RH WIND       PRES   REMARKS
SPRINGFIELD    MOSUNNY   67  54  63 N10       30.21S
JOPLIN         SUNNY     65  55  70 CALM      30.24R
BRANSON        SUNNY     64  54  68 N6        30.21S

$$
MOZ032>034-039>042-045>050-055>058-069>072-301700-
...CENTRAL MISSOURI...

CITY           SKY/WX    TMP DP  RH WIND       PRES   REMARKS
COLUMBIA       MOSUNNY   67  55  65 N12G20    30.18R
JEFFERSON CITY MOSUNNY   67  55  65 NW8       30.17S
ROLLA          CLOUDY    63  56  78 NW8       30.16S
SEDALIA        SUNNY     69  54  58 NW12      30.22F
WHITEMAN AFB   MOSUNNY   65  56  71 NW9       30.20F
OSAGE BEACH    MOSUNNY   65  55  70 VRB6      30.19F

$$
MOZ051-052-059>065-301700-
...EAST CENTRAL MISSOURI...

CITY           SKY/WX    TMP DP  RH WIND       PRES   REMARKS
ST LOUIS INTL  CLOUDY    65  56  72 NE15      30.12R
SPIRIT OF STL  CLOUDY    65  57  75 N9        30.12R
ST CHARLES     CLOUDY    64  58  80 N14       30.12R

$$
MOZ072>076-082>087-097>100-106>115-301700-
...SOUTH CENTRAL AND SOUTHEAST MISSOURI...

CITY           SKY/WX    TMP DP  RH WIND       PRES   REMARKS
CAPE GIRARDEAU CLOUDY    64  57  78 NW8       30.09S
FARMINGTON     CLOUDY    62  57  83 NW8       30.12F
POPLAR BLUFF   PTSUNNY   67  57  70 N12       30.12R
WEST PLAINS    MOSUNNY   66  54  65 N9        30.18S

$$



USA.gov is the U.S. government's official web portal to all federal, state and local government web resources and services.